SCP
0 -0 0 0 0 0 0 0 0 0 0 0 0 0 0 0 0 0 0 0 0 -0 -0 0 0 -0 -0 -0 0 0 -0 0 0 0 0 1 0 0 1 1 1 1 2 2
-0 0 0 -0 -0 -0 -0 -0 0 0 0 0 0 0 0 0 0 -0 -0 0 0 0 0 -0 0 0 0 0 -0 0 -0 0 1 1 1 2 -0 -0 0 1 1 3 2 4
0 -0 -0 -0 -0 0 0 0 0 0 0 0 0 -0 -0 -0 -0 -0 -0 -0 -0 -1 -0 -0 -0 0 0 -0 -0 -0 0 1 1 1 2 2 3 3 1 1 1 2 3 3
-0 -0 0 0 -0 0 0 0 0 0 0 -0 0 -0 -0 -0 -0 -0 -0 -0 -0 -1 -1 -1 0 0 0 0 -0 -0 0 0 1 1 0 1 3 4 3 3 4 3 3 2
-0 -0 0 0 -0 -0 -0 -0 0 0 0 -0 0 0 -0 -0 -0 -0 -0 -0 -0 -0 -0 -0 -0 0 0 0 0 -0 0 0 0 1 1 1 1 2 3 3 2 2 4 3
-0 -0 -0 -0 -0 -0 0 -0 -0 0 0 -0 0 0 0 -0 -0 -0 -0 -0 -0 -0 -0 -0 0 -0 0 0 0 1 1 0 0 0 1 1 2 1 -0 -1 1 2 5 1
-0 0 0 0 0 -0 -0 0 0 -0 0 0 0 -0 0 0 -0 -0 -0 -0 -0 -0 -0 -0 -0 0 0 0 1 1 0 1 0 -0 0 -0 -1 -1 -1 -0 1 3 2 1
0 -0 0 -0 -0 -0 -0 0 -0 -0 -0 -0 0 0 0 0 0 -0 -0 -0 -0 -0 -0 -0 -0 0 0 0 0 0 -0 -0 0 -1 -1 -2 -2 0 2 2 1 2 4 3
0 0 0 0 0 0 0 0 0 0 0 -0 0 0 0 0 0 0 -0 -0 -0 -0 -0 0 0 0 0 0 1 1 0 0 0 1 1 1 1 1 1 1 1 2 2 0
0 0 0 0 0 0 0 0 0 0 0 0 0 0 0 0 0 0 0 0 0 0 0 0 0 0 0 1 0 0 1 1 1 1 2 2 1 1 0 0 0 0 0 0
0 0 0 0 0 0 0 0 0 0 0 0 0 0 0 0 0 0 0 0 0 0 0 0 0 0 0 0 0 0 1 1 2 2 2 2 1 0 0 0 0 0 0 0
0 0 0 0 0 0 0 0 0 0 0 0 0 0 0 0 0 0 0 0 0 0 0 0 0 0 0 0 0 0 0 0 0 1 1 1 1 0 0 0 0 0 0 0
0 0 0 0 0 0 0 0 0 0 0 0 0 0 0 0 0 0 0 0 0 0 0 0 0 0 0 0 0 0 0 0 0 1 1 1 1 1 0 0 0 0 0 0
0 0 0 0 0 0 0 0 0 0 0 0 0 0 0 0 0 0 0 0 0 0 0 0 0 0 0 0 -0 0 0 0 0 1 1 1 1 1 0 0 0 0 0 0
0 0 0 0 0 0 0 0 0 0 0 0 0 0 0 0 0 0 0 0 0 0 0 0 0 0 0 0 0 0 0 0 0 0 1 1 1 1 0 0 0 0 0 0
0 0 0 0 0 0 0 0 0 0 0 0 0 0 0 0 0 0 0 0 0 0 0 0 0 0 0 0 0 0 -0 -0 -0 -0 0 1 1 0 0 0 0 0 0 0
0 0 0 0 0 0 0 0 0 0 0 0 0 0 0 0 0 0 0 0 0 0 0 0 0 0 0 0 0 0 0 -0 0 0 -0 0 0 0 0 0 0 0 0 0
0 0 0 0 0 0 0 0 0 0 0 0 0 0 0 0 0 0 0 0 0 0 0 0 0 0 0 0 0 0 0 0 0 0 0 1 0 0 0 0 0 0 0 0
0 0 0 0 0 0 0 0 0 0 0 0 0 0 0 0 0 0 0 0 0 0 0 0 0 0 0 0 0 0 0 0 0 0 1 1 1 0 0 0 0 0 0 0
0 0 0 0 0 0 0 0 0 0 0 0 0 0 0 0 0 0 0 0 0 0 0 0 0 0 0 0 0 0 0 0 0 0 0 1 1 0 1 0 0 0 0 0
0 0 0 0 0 0 0 0 0 0 0 0 0 0 0 0 0 0 0 0 0 0 0 0 0 0 0 0 0 0 0 0 0 0 0 0 0 0 0 0 0 0 0 0
0 0 0 0 0 0 0 0 0 0 0 0 0 0 0 0 0 0 0 0 0 0 0 0 0 0 0 0 0 0 0 0 0 0 0 0 0 0 0 0 0 0 0 0
0 0 0 0 0 0 0 0 0 0 0 0 0 0 0 0 0 0 0 0 0 0 0 0 0 0 0 0 0 0 0 0 0 0 0 0 0 0 0 0 0 0 0 0
0 0 0 0 0 0 0 0 0 0 0 0 0 0 0 0 0 0 0 0 0 0 0 0 0 0 0 0 0 0 -0 -0 0 0 0 0 0 0 0 0 0 0 0 0
0 0 0 0 0 0 0 0 0 0 0 0 0 0 0 0 0 0 0 0 0 0 0 0 0 0 0 0 0 0 -0 0 0 0 0 0 0 0 0 0 0 0 0 0
0 0 0 0 0 0 0 0 0 0 0 0 0 0 0 0 0 0 0 0 0 0 0 0 0 0 0 0 0 0 -0 -0 0 0 0 0 0 0 0 0 0 0 0 0
Wind_Speed_500mb
5 16 10 13 10 9 7 6 7 4 8 18 13 10 19 21 21 23 22 22 27 34 38 34 34 34 47 51 52 52 54 51 54 55 58 59 47 54 57 58 58 48 50 51
14 13 8 8 7 7 7 10 10 11 6 15 12 13 25 26 32 36 37 37 34 30 30 28 27 28 37 43 45 51 58 57 64 67 63 49 67 50 48 33 52 60 53 64
8 13 2 8 6 11 5 14 15 15 19 5 11 20 16 15 33 40 43 43 44 39 36 37 34 18 19 26 29 39 46 57 61 60 53 54 63 66 47 31 31 33 39 47
2 6 8 12 3 14 3 11 10 12 16 10 14 14 22 20 32 36 47 50 52 51 48 49 45 42 24 7 10 17 24 34 46 52 46 33 37 37 32 24 21 35 38 38
13 6 9 9 16 10 14 10 10 7 4 13 8 10 26 30 28 32 45 51 53 52 50 49 47 47 40 33 20 23 7 13 21 30 32 35 29 22 19 19 25 31 35 33
7 5 7 16 15 9 6 15 12 10 10 8 6 16 21 20 28 29 39 46 52 54 55 54 49 46 43 37 34 25 11 8 10 15 17 21 28 23 17 20 25 40 53 42
11 8 2 9 15 9 14 14 5 6 2 8 4 12 15 20 27 29 32 41 48 52 57 59 61 56 49 42 36 28 17 12 11 9 8 5 5 9 16 30 40 46 62 61
4 16 6 16 14 11 11 12 11 9 9 14 14 2 12 16 27 32 35 39 46 52 54 56 57 53 51 46 36 20 23 15 15 15 17 16 17 12 25 37 44 46 43 42
5 8 5 9 14 9 7 7 9 13 11 16 5 15 9 18 26 39 45 51 54 55 55 56 56 55 52 46 34 28 19 16 16 15 15 14 14 28 40 53 51 39 34 37
9 7 3 5 8 11 15 5 10 7 12 17 12 16 7 22 30 33 39 46 47 47 48 51 54 56 48 40 31 34 24 19 10 12 13 24 29 39 44 38 34 33 21 23
11 5 9 12 10 18 9 3 5 8 8 17 20 8 8 15 21 24 30 34 39 43 46 49 50 53 54 50 43 36 26 19 12 16 23 25 31 28 23 25 30 29 23 17
12 8 15 15 5 3 5 6 8 11 17 19 14 19 8 12 19 21 23 27 31 35 39 43 45 47 53 51 50 42 25 11 16 24 29 28 17 16 21 19 19 18 14 10
14 2 13 14 15 10 6 6 6 9 13 24 21 9 9 8 10 14 20 25 27 32 38 42 48 50 52 53 51 51 43 30 24 34 32 17 13 18 17 16 12 13 13 16
5 7 14 20 25 15 25 21 19 13 17 23 22 26 15 8 9 12 17 20 25 29 34 40 45 47 49 50 49 51 54 50 37 29 31 17 17 16 14 11 8 8 10 10
7 11 10 17 16 20 26 27 26 27 28 28 31 32 30 13 9 9 10 14 21 28 34 37 41 42 43 47 48 47 49 51 47 41 27 20 16 11 9 5 4 4 6 4
4 11 16 23 13 18 26 28 26 26 22 25 18 21 18 7 7 13 15 17 20 24 28 34 39 44 47 48 48 48 46 44 43 38 31 19 17 8 7 3 6 7 6 4
7 9 11 15 6 22 25 9 11 13 10 14 17 24 14 7 16 22 20 20 23 28 34 38 40 44 45 42 41 45 48 46 42 37 26 17 24 14 11 7 9 8 4 3
7 7 7 14 19 16 15 14 10 11 7 13 17 17 17 20 27 28 17 19 30 36 43 47 49 51 50 46 41 43 44 44 42 38 29 23 21 18 12 11 12 8 3 4
7 8 6 12 12 21 14 13 15 17 16 12 16 16 16 20 29 41 4 23 37 41 43 43 46 49 49 45 42 43 45 44 42 41 36 26 22 21 16 13 13 7 6 5
7 7 10 8 16 13 11 14 21 14 18 16 20 24 29 34 23 19 44 47 50 49 51 53 54 56 57 55 52 49 46 45 45 45 36 27 27 26 24 21 13 6 4 2
6 8 14 13 12 9 12 22 22 18 11 32 33 35 34 28 36 49 56 61 61 61 62 61 60 56 52 54 52 48 42 43 47 44 31 26 26 24 17 15 5 2 5 3
7 7 9 4 9 15 23 16 15 23 39 41 42 35 39 47 56 61 60 60 61 63 61 56 56 52 49 48 42 40 39 40 47 37 33 24 10 5 16 21 10 8 5 10
7 4 10 6 12 13 13 15 23 34 36 40 40 44 50 53 52 50 51 51 52 52 49 48 47 43 44 49 40 36 41 46 48 30 25 6 10 3 16 15 8 12 13 11
11 7 11 14 7 15 28 31 20 31 36 40 40 44 48 54 56 57 56 55 53 50 47 44 42 42 48 51 34 34 42 56 30 21 5 6 13 8 16 10 7 7 9 13
12 3 14 20 27 22 13 18 28 37 39 41 42 45 48 50 52 53 53 52 52 50 47 45 44 46 47 39 34 34 48 49 27 7 2 2 7 13 8 14 12 10 19 18
8 6 10 10 23 21 31 36 38 39 40 43 48 52 53 55 57 57 57 54 50 47 46 47 43 42 39 33 37 39 38 38 19 2 14 15 12 12 16 11 11 18 20 20
Wind_Direction_500mb
201 234 62 30 7 348 326 316 321 11 37 309 17 320 36 36 33 26 6 343 319 305 305 298 277 255 241 231 234 234 234 231 236 237 247 252 258 252 249 253 254 254 252 243
210 100 63 334 319 281 251 285 40 256 24 298 4 76 79 59 58 52 35 25 8 349 349 336 314 269 243 241 236 241 247 246 250 248 249 246 276 280 265 294 271 266 261 259
341 73 310 288 311 236 140 354 5 345 317 221 278 103 78 73 60 33 29 25 24 22 17 17 11 339 253 245 248 243 252 258 256 253 251 246 232 255 279 304 297 295 299 291
294 123 293 305 253 312 96 22 328 322 302 83 308 116 77 33 38 34 28 25 22 24 28 30 28 29 24 341 272 262 254 246 255 259 254 260 245 251 267 289 291 297 314 313
95 255 324 280 14 323 39 345 335 314 148 241 73 277 75 41 20 20 20 24 24 26 31 31 32 35 32 41 69 39 2 225 229 244 257 256 272 275 267 282 297 312 305 298
282 289 284 3 322 282 312 262 207 222 207 188 28 304 79 25 11 9 18 22 21 22 26 29 32 29 31 38 38 52 52 100 137 202 222 236 253 271 267 302 291 300 298 287
175 140 152 309 290 181 223 286 260 226 273 39 31 255 54 28 22 17 15 20 21 19 20 21 22 23 22 26 36 40 46 65 69 67 69 49 24 7 324 327 313 302 305 306
263 157 32 28 16 359 36 331 1 310 345 355 141 68 80 48 28 20 22 23 24 22 19 17 18 17 17 20 31 36 33 37 73 82 47 38 24 13 326 323 317 308 293 288
272 125 170 23 20 326 68 14 5 302 206 263 74 116 165 38 24 16 15 18 19 19 19 20 19 18 15 17 18 28 25 27 62 79 77 66 340 333 326 316 313 316 307 299
45 274 123 58 249 95 17 64 270 238 293 305 294 279 62 24 9 6 10 13 14 17 20 22 23 23 25 24 4 25 29 37 94 104 28 341 328 324 328 337 342 351 333 315
354 284 120 233 30 350 316 259 332 293 297 307 300 344 39 22 14 0 7 8 12 15 19 21 23 22 22 27 27 27 33 23 29 357 341 328 319 339 9 19 23 27 8 357
33 317 292 4 53 224 314 22 353 315 316 309 290 290 51 26 21 7 10 14 18 19 22 24 24 23 25 22 20 20 11 3 343 341 332 330 337 351 354 5 20 41 50 77
359 104 286 203 185 184 288 34 335 296 276 277 294 327 133 68 24 19 16 14 20 23 23 22 22 21 19 18 18 18 13 354 350 349 342 341 354 355 355 359 37 67 77 82
308 277 280 290 326 320 296 299 303 286 283 308 287 299 272 58 348 14 14 12 15 17 19 19 19 19 17 15 11 9 8 7 350 340 346 341 348 346 351 13 46 81 93 107
355 276 283 289 289 288 287 291 294 286 285 282 299 300 306 15 340 1 4 357 0 6 10 11 11 9 7 6 4 2 358 358 354 353 336 320 326 325 349 41 127 150 135 131
360 286 300 287 281 280 281 281 286 293 288 279 294 286 53 60 309 330 339 343 349 358 2 4 3 2 359 354 352 352 351 344 345 338 330 306 300 288 312 228 187 184 188 145
294 310 297 291 344 300 268 61 322 305 306 334 323 6 352 291 314 328 327 332 340 343 343 343 343 342 341 345 345 345 344 341 335 331 330 294 275 282 285 225 210 191 188 254
276 276 300 294 298 267 53 21 346 311 311 340 326 326 337 337 316 302 285 331 332 331 328 328 331 331 333 331 333 336 338 338 331 319 311 295 283 275 257 227 223 206 256 298
232 266 290 282 300 301 153 31 1 343 331 13 346 350 341 328 315 297 217 335 327 322 323 323 326 327 328 325 319 325 329 328 327 316 297 284 262 276 227 227 224 257 277 268
139 240 264 305 290 292 47 11 339 305 270 28 344 329 328 324 302 308 341 323 317 313 312 313 315 317 316 315 314 310 313 316 318 318 297 283 271 262 222 217 225 213 221 216
236 279 275 276 265 278 43 349 315 251 27 338 327 316 315 312 313 308 308 308 307 306 305 307 309 312 314 317 316 316 311 316 323 321 300 269 264 250 223 130 87 337 166 313
280 288 262 266 270 259 13 326 344 339 316 314 310 305 305 303 304 307 309 310 313 313 311 309 311 315 319 323 321 318 318 322 326 313 288 288 272 198 90 79 59 308 52 61
255 304 339 278 340 350 332 329 311 311 310 314 312 306 306 307 307 309 312 314 317 319 321 322 321 320 325 329 322 323 327 327 328 291 284 236 349 153 92 86 54 49 37 17
177 227 256 306 180 316 308 308 317 316 313 311 309 307 303 301 303 306 308 311 310 312 317 321 323 324 327 329 328 333 337 337 323 304 255 151 9 189 135 129 108 86 39 5
330 291 283 286 278 316 293 331 324 316 311 306 303 303 304 305 303 306 308 308 306 305 308 312 315 317 324 332 339 341 345 347 355 347 247 134 121 142 147 125 121 62 31 36
255 321 271 307 337 302 300 312 314 310 309 310 307 304 301 301 300 301 299 301 302 304 302 305 307 312 320 326 340 334 349 354 349 10 140 124 122 111 108 103 57 46 46 26
Wind_Speed_850mb
5 16 10 13 10 9 7 6 7 4 8 18 13 10 19 21 21 23 22 22 27 34 38 34 34 34 47 51 52 52 54 51 54 55 58 59 47 54 57 58 58 48 50 51
14 13 8 8 7 7 7 10 10 11 6 15 12 13 25 26 32 36 37 37 34 30 30 28 27 28 37 43 45 51 58 57 64 67 63 49 67 50 48 33 52 60 53 64
8 13 2 8 6 11 5 14 15 15 19 5 11 20 16 15 33 40 43 43 44 39 36 37 34 18 19 26 29 39 46 57 61 60 53 54 63 66 47 31 31 33 39 47
2 6 8 12 3 14 3 11 10 12 16 10 14 14 22 20 32 36 47 50 52 51 48 49 45 42 24 7 10 17 24 34 46 52 46 33 37 37 32 24 21 35 38 38
13 6 9 9 16 10 14 10 10 7 4 13 8 10 26 30 28 32 45 51 53 52 50 49 47 47 40 33 20 23 7 13 21 30 32 35 29 22 19 19 25 31 35 33
7 5 7 16 15 9 6 15 12 10 10 8 6 16 21 20 28 29 39 46 52 54 55 54 49 46 43 37 34 25 11 8 10 15 17 21 28 23 17 20 25 40 53 42
11 8 2 9 15 9 14 14 5 6 2 8 4 12 15 20 27 29 32 41 48 52 57 59 61 56 49 42 36 28 17 12 11 9 8 5 5 9 16 30 40 46 62 61
4 16 6 16 14 11 11 12 11 9 9 14 14 2 12 16 27 32 35 39 46 52 54 56 57 53 51 46 36 20 23 15 15 15 17 16 17 12 25 37 44 46 43 42
5 8 5 9 14 9 7 7 9 13 11 16 5 15 9 18 26 39 45 51 54 55 55 56 56 55 52 46 34 28 19 16 16 15 15 14 14 28 40 53 51 39 34 37
9 7 3 5 8 11 15 5 10 7 12 17 12 16 7 22 30 33 39 46 47 47 48 51 54 56 48 40 31 34 24 19 10 12 13 24 29 39 44 38 34 33 21 23
11 5 9 12 10 18 9 3 5 8 8 17 20 8 8 15 21 24 30 34 39 43 46 49 50 53 54 50 43 36 26 19 12 16 23 25 31 28 23 25 30 29 23 17
12 8 15 15 5 3 5 6 8 11 17 19 14 19 8 12 19 21 23 27 31 35 39 43 45 47 53 51 50 42 25 11 16 24 29 28 17 16 21 19 19 18 14 10
14 2 13 14 15 10 6 6 6 9 13 24 21 9 9 8 10 14 20 25 27 32 38 42 48 50 52 53 51 51 43 30 24 34 32 17 13 18 17 16 12 13 13 16
5 7 14 20 25 15 25 21 19 13 17 23 22 26 15 8 9 12 17 20 25 29 34 40 45 47 49 50 49 51 54 50 37 29 31 17 17 16 14 11 8 8 10 10
7 11 10 17 16 20 26 27 26 27 28 28 31 32 30 13 9 9 10 14 21 28 34 37 41 42 43 47 48 47 49 51 47 41 27 20 16 11 9 5 4 4 6 4
4 11 16 23 13 18 26 28 26 26 22 25 18 21 18 7 7 13 15 17 20 24 28 34 39 44 47 48 48 48 46 44 43 38 31 19 17 8 7 3 6 7 6 4
7 9 11 15 6 22 25 9 11 13 10 14 17 24 14 7 16 22 20 20 23 28 34 38 40 44 45 42 41 45 48 46 42 37 26 17 24 14 11 7 9 8 4 3
7 7 7 14 19 16 15 14 10 11 7 13 17 17 17 20 27 28 17 19 30 36 43 47 49 51 50 46 41 43 44 44 42 38 29 23 21 18 12 11 12 8 3 4
7 8 6 12 12 21 14 13 15 17 16 12 16 16 16 20 29 41 4 23 37 41 43 43 46 49 49 45 42 43 45 44 42 41 36 26 22 21 16 13 13 7 6 5
7 7 10 8 16 13 11 14 21 14 18 16 20 24 29 34 23 19 44 47 50 49 51 53 54 56 57 55 52 49 46 45 45 45 36 27 27 26 24 21 13 6 4 2
6 8 14 13 12 9 12 22 22 18 11 32 33 35 34 28 36 49 56 61 61 61 62 61 60 56 52 54 52 48 42 43 47 44 31 26 26 24 17 15 5 2 5 3
7 7 9 4 9 15 23 16 15 23 39 41 42 35 39 47 56 61 60 60 61 63 61 56 56 52 49 48 42 40 39 40 47 37 33 24 10 5 16 21 10 8 5 10
7 4 10 6 12 13 13 15 23 34 36 40 40 44 50 53 52 50 51 51 52 52 49 48 47 43 44 49 40 36 41 46 48 30 25 6 10 3 16 15 8 12 13 11
11 7 11 14 7 15 28 31 20 31 36 40 40 44 48 54 56 57 56 55 53 50 47 44 42 42 48 51 34 34 42 56 30 21 5 6 13 8 16 10 7 7 9 13
12 3 14 20 27 22 13 18 28 37 39 41 42 45 48 50 52 53 53 52 52 50 47 45 44 46 47 39 34 34 48 49 27 7 2 2 7 13 8 14 12 10 19 18
8 6 10 10 23 21 31 36 38 39 40 43 48 52 53 55 57 57 57 54 50 47 46 47 43 42 39 33 37 39 38 38 19 2 14 15 12 12 16 11 11 18 20 20
Wind_Direction_850mb
201 234 62 30 7 348 326 316 321 11 37 309 17 320 36 36 33 26 6 343 319 305 305 298 277 255 241 231 234 234 234 231 236 237 247 252 258 252 249 253 254 254 252 243
210 100 63 334 319 281 251 285 40 256 24 298 4 76 79 59 58 52 35 25 8 349 349 336 314 269 243 241 236 241 247 246 250 248 249 246 276 280 265 294 271 266 261 259
341 73 310 288 311 236 140 354 5 345 317 221 278 103 78 73 60 33 29 25 24 22 17 17 11 339 253 245 248 243 252 258 256 253 251 246 232 255 279 304 297 295 299 291
294 123 293 305 253 312 96 22 328 322 302 83 308 116 77 33 38 34 28 25 22 24 28 30 28 29 24 341 272 262 254 246 255 259 254 260 245 251 267 289 291 297 314 313
95 255 324 280 14 323 39 345 335 314 148 241 73 277 75 41 20 20 20 24 24 26 31 31 32 35 32 41 69 39 2 225 229 244 257 256 272 275 267 282 297 312 305 298
282 289 284 3 322 282 312 262 207 222 207 188 28 304 79 25 11 9 18 22 21 22 26 29 32 29 31 38 38 52 52 100 137 202 222 236 253 271 267 302 291 300 298 287
175 140 152 309 290 181 223 286 260 226 273 39 31 255 54 28 22 17 15 20 21 19 20 21 22 23 22 26 36 40 46 65 69 67 69 49 24 7 324 327 313 302 305 306
263 157 32 28 16 359 36 331 1 310 345 355 141 68 80 48 28 20 22 23 24 22 19 17 18 17 17 20 31 36 33 37 73 82 47 38 24 13 326 323 317 308 293 288
272 125 170 23 20 326 68 14 5 302 206 263 74 116 165 38 24 16 15 18 19 19 19 20 19 18 15 17 18 28 25 27 62 79 77 66 340 333 326 316 313 316 307 299
45 274 123 58 249 95 17 64 270 238 293 305 294 279 62 24 9 6 10 13 14 17 20 22 23 23 25 24 4 25 29 37 94 104 28 341 328 324 328 337 342 351 333 315
354 284 120 233 30 350 316 259 332 293 297 307 300 344 39 22 14 0 7 8 12 15 19 21 23 22 22 27 27 27 33 23 29 357 341 328 319 339 9 19 23 27 8 357
33 317 292 4 53 224 314 22 353 315 316 309 290 290 51 26 21 7 10 14 18 19 22 24 24 23 25 22 20 20 11 3 343 341 332 330 337 351 354 5 20 41 50 77
359 104 286 203 185 184 288 34 335 296 276 277 294 327 133 68 24 19 16 14 20 23 23 22 22 21 19 18 18 18 13 354 350 349 342 341 354 355 355 359 37 67 77 82
308 277 280 290 326 320 296 299 303 286 283 308 287 299 272 58 348 14 14 12 15 17 19 19 19 19 17 15 11 9 8 7 350 340 346 341 348 346 351 13 46 81 93 107
355 276 283 289 289 288 287 291 294 286 285 282 299 300 306 15 340 1 4 357 0 6 10 11 11 9 7 6 4 2 358 358 354 353 336 320 326 325 349 41 127 150 135 131
360 286 300 287 281 280 281 281 286 293 288 279 294 286 53 60 309 330 339 343 349 358 2 4 3 2 359 354 352 352 351 344 345 338 330 306 300 288 312 228 187 184 188 145
294 310 297 291 344 300 268 61 322 305 306 334 323 6 352 291 314 328 327 332 340 343 343 343 343 342 341 345 345 345 344 341 335 331 330 294 275 282 285 225 210 191 188 254
276 276 300 294 298 267 53 21 346 311 311 340 326 326 337 337 316 302 285 331 332 331 328 328 331 331 333 331 333 336 338 338 331 319 311 295 283 275 257 227 223 206 256 298
232 266 290 282 300 301 153 31 1 343 331 13 346 350 341 328 315 297 217 335 327 322 323 323 326 327 328 325 319 325 329 328 327 316 297 284 262 276 227 227 224 257 277 268
139 240 264 305 290 292 47 11 339 305 270 28 344 329 328 324 302 308 341 323 317 313 312 313 315 317 316 315 314 310 313 316 318 318 297 283 271 262 222 217 225 213 221 216
236 279 275 276 265 278 43 349 315 251 27 338 327 316 315 312 313 308 308 308 307 306 305 307 309 312 314 317 316 316 311 316 323 321 300 269 264 250 223 130 87 337 166 313
280 288 262 266 270 259 13 326 344 339 316 314 310 305 305 303 304 307 309 310 313 313 311 309 311 315 319 323 321 318 318 322 326 313 288 288 272 198 90 79 59 308 52 61
255 304 339 278 340 350 332 329 311 311 310 314 312 306 306 307 307 309 312 314 317 319 321 322 321 320 325 329 322 323 327 327 328 291 284 236 349 153 92 86 54 49 37 17
177 227 256 306 180 316 308 308 317 316 313 311 309 307 303 301 303 306 308 311 310 312 317 321 323 324 327 329 328 333 337 337 323 304 255 151 9 189 135 129 108 86 39 5
330 291 283 286 278 316 293 331 324 316 311 306 303 303 304 305 303 306 308 308 306 305 308 312 315 317 324 332 339 341 345 347 355 347 247 134 121 142 147 125 121 62 31 36
255 321 271 307 337 302 300 312 314 310 309 310 307 304 301 301 300 301 299 301 302 304 302 305 307 312 320 326 340 334 349 354 349 10 140 124 122 111 108 103 57 46 46 26